Sarasota, FL

5:20 AM EDT on July 25, 2017 (GMT -0400)
Sarasota-bradenton

Weather History for KSRQ - February, 2013

Change the Weather History Date:

Tuesday, February 12, 2013

  Actual Average Record
Temperature  
Mean Temperature 72 °F 63 °F  
Max Temperature 80 °F 73 °F 87 °F (1959)
Min Temperature 64 °F 53 °F 33 °F (1973)
Degree Days  
Heating Degree Days 0 4  
Month to date heating degree days 40 48  
Since 1 July heating degree days 204 368  
Cooling Degree Days 7 2  
Month to date cooling degree days 33 20  
Year to date cooling degree days 150 72  
Growing Degree Days 22 (Base 50)    
Moisture  
Dew Point 67 °F    
Average Humidity 86    
Maximum Humidity 100    
Minimum Humidity 71    
Precipitation  
Precipitation 0.00 in 0.07 in 3.47 in (1963)
Month to date precipitation 0.12 0.58  
Year to date precipitation 0.32 3.07  
Sea Level Pressure  
Sea Level Pressure 30.03 in    
Wind  
Wind Speed 12 mph (South)    
Max Wind Speed 22 mph    
Max Gust Speed 26 mph    
Visibility 9 miles    
Events      
T = Trace of Precipitation, MM = Missing Value Source: NWS Daily Summary

Daily Weather History Graph

Daily Weather History Graph

Search for Another Location

Airport or City:

Trip Planner

Search our weather history database for the weather conditions in past years. The results will help you decide how hot, cold, wet, or windy it might be!

Date:

Astronomy

Feb. 12, 2013 Rise Set
Actual Time 7:09 AM EST 6:19 PM EST
Civil Twilight 6:45 AM EST 6:43 PM EST
Nautical Twilight 6:17 AM EST 7:11 PM EST
Astronomical Twilight 5:50 AM EST 7:38 PM EST
Moon 8:24 AM EST (2/12) 8:57 PM EST (2/12)
Length of Visible Light 11h 58m
Length of Day
11h 10m
Waxing Crescent, 7% of the Moon is Illuminated
Feb 12
Waxing Crescent
Feb 17
First Quarter
Feb 25
Full
Mar 4
Last Quarter
Mar 11
New

Hourly Weather History & Observations

Time (EST) Temp. Dew Point Humidity Pressure Visibility Wind Dir Wind Speed Gust Speed Precip Events Conditions
12:53 AM 70.0 °F 66.0 °F 87% 30.09 in 10.0 mi South 10.4 mph - N/A   Clear
1:53 AM 70.0 °F 66.0 °F 87% 30.07 in 10.0 mi South 11.5 mph - N/A   Clear
2:53 AM 69.1 °F 66.0 °F 90% 30.06 in 10.0 mi SSE 9.2 mph - N/A   Clear
3:53 AM 66.0 °F 64.0 °F 93% 30.06 in 10.0 mi SE 6.9 mph - N/A   Clear
4:53 AM 64.9 °F 64.0 °F 97% 30.05 in 9.0 mi SSE 6.9 mph - N/A   Clear
5:53 AM 64.9 °F 64.0 °F 97% 30.05 in 9.0 mi SSE 8.1 mph - N/A   Clear
6:53 AM 64.0 °F 63.0 °F 96% 30.06 in 8.0 mi ESE 5.8 mph - N/A   Clear
7:53 AM 64.9 °F 64.0 °F 97% 30.08 in 5.0 mi East 3.5 mph - N/A   Clear
8:19 AM 66.2 °F 64.4 °F 94% 30.09 in 7.0 mi Calm Calm - N/A   Mostly Cloudy
8:45 AM 69.8 °F 66.2 °F 88% 30.09 in 10.0 mi SE 4.6 mph - N/A   Scattered Clouds
8:53 AM 70.0 °F 66.9 °F 90% 30.09 in 10.0 mi SE 6.9 mph - N/A   Partly Cloudy
9:53 AM 75.9 °F 68.0 °F 76% 30.09 in 10.0 mi South 13.8 mph - N/A   Clear
10:53 AM 77.0 °F 68.0 °F 74% 30.09 in 10.0 mi South 16.1 mph 24.2 mph N/A   Mostly Cloudy
11:53 AM 79.0 °F 68.0 °F 69% 30.07 in 10.0 mi South 16.1 mph - N/A   Clear
12:53 PM 79.0 °F 68.0 °F 69% 30.05 in 10.0 mi South 18.4 mph 24.2 mph N/A   Mostly Cloudy
1:53 PM 79.0 °F 68.0 °F 69% 30.00 in 10.0 mi South 17.3 mph - N/A   Clear
2:53 PM 78.1 °F 69.1 °F 74% 29.97 in 10.0 mi South 18.4 mph - N/A   Clear
3:53 PM 77.0 °F 69.1 °F 76% 29.97 in 10.0 mi South 16.1 mph - N/A   Clear
4:53 PM 75.9 °F 69.1 °F 79% 29.97 in 10.0 mi South 13.8 mph 21.9 mph N/A   Clear
5:53 PM 73.9 °F 69.1 °F 85% 29.96 in 10.0 mi South 12.7 mph - N/A   Partly Cloudy
6:53 PM 72.0 °F 69.1 °F 91% 29.96 in 9.0 mi South 11.5 mph 19.6 mph N/A   Partly Cloudy
7:19 PM 71.6 °F 69.8 °F 94% 29.96 in 8.0 mi South 12.7 mph - N/A   Scattered Clouds
7:53 PM 72.0 °F 69.1 °F 91% 29.97 in 7.0 mi South 11.5 mph - N/A   Partly Cloudy
8:53 PM 72.0 °F 69.1 °F 91% 29.97 in 8.0 mi South 10.4 mph - N/A   Partly Cloudy
9:53 PM 72.0 °F 69.1 °F 91% 29.98 in 10.0 mi South 12.7 mph - N/A   Partly Cloudy
10:53 PM 71.1 °F 69.1 °F 93% 29.98 in 10.0 mi South 10.4 mph - N/A   Partly Cloudy
11:53 PM 71.1 °F 69.1 °F 93% 29.97 in 10.0 mi South 11.5 mph - N/A   Mostly Cloudy